User: anonymous   Login
Location: Unspecified
(0.0000°N, 0.0000°E)
Time: 05:53:20
(UTC+00:00)
Language:

ELEKTRO-L - Orbit

View from above orbital plane
View from above orbital plane
View from above satellite
View from above satellite

Ground track
Ground track

The orbit data is extracted from the following two-line orbital elements,

1 37344U 11001A   18017.24104264  .00000056  00000-0  00000+0 0  9994
2 37344   2.8743  77.1202 0005066 269.9763  89.7753  1.00163305 25651
Epoch (UTC): 17 January 2018 05:47:06
Eccentricity: 0.0005066
inclination: 2.8743°
perigee height: 35795 km
apogee height: 35838 km
right ascension of ascending node: 77.1202°
argument of perigee: 269.9763°
revolutions per day: 1.00163305
mean anomaly at epoch: 89.7753°
orbit number at epoch: 2565

The dashed part of the orbit path shows where the satellite is in the earth's shadow,  

DLR